Time,TemperatureF,DewpointF,PressureIn,WindDirection,WindDirectionDegrees,WindSpeedMPH,WindSpeedGustMPH,Humidity,HourlyPrecipIn,Conditions,Clouds,dailyrainin,SoftwareType,DateUTC
2013-05-04 00:02:00,43.7,25.8,30.07,ENE,69,0.0,0.0,49,0.00,,---,0.00,VWS V14.00,2013-05-04 06:02:00,
2013-05-04 00:07:00,43.5,26.1,30.07,ENE,69,0.0,0.0,50,0.00,,---,0.00,VWS V14.00,2013-05-04 06:07:00,
2013-05-04 00:12:00,43.4,26.0,30.08,ENE,69,0.0,0.0,50,0.00,,---,0.00,VWS V14.00,2013-05-04 06:12:00,
2013-05-04 00:17:00,43.2,26.3,30.08,ENE,69,0.0,0.0,51,0.00,,---,0.00,VWS V14.00,2013-05-04 06:17:00,
2013-05-04 00:22:00,43.0,26.1,30.08,ENE,69,0.0,0.0,51,0.00,,---,0.00,VWS V14.00,2013-05-04 06:22:00,
2013-05-04 00:27:00,42.8,25.9,30.09,ENE,69,0.0,0.0,51,0.00,,---,0.00,VWS V14.00,2013-05-04 06:27:00,
2013-05-04 00:32:00,42.6,26.2,30.09,ENE,69,0.0,0.0,52,0.00,,---,0.00,VWS V14.00,2013-05-04 06:32:00,
2013-05-04 00:37:00,42.5,26.1,30.09,ENE,69,0.0,0.0,52,0.00,,---,0.00,VWS V14.00,2013-05-04 06:37:00,
2013-05-04 00:42:00,42.4,26.0,30.09,ENE,69,0.0,0.0,52,0.00,,---,0.00,VWS V14.00,2013-05-04 06:42:00,
2013-05-04 00:47:00,42.2,26.3,30.09,ENE,69,0.0,0.0,53,0.00,,---,0.00,VWS V14.00,2013-05-04 06:47:00,
2013-05-04 00:52:00,42.1,26.2,30.09,ENE,69,0.0,0.0,53,0.00,,---,0.00,VWS V14.00,2013-05-04 06:52:00,
2013-05-04 00:57:00,41.9,26.0,30.09,ENE,69,0.0,0.0,53,0.00,,---,0.00,VWS V14.00,2013-05-04 06:57:00,
2013-05-04 01:02:00,41.8,26.4,30.09,ENE,69,0.0,0.0,54,0.00,,---,0.00,VWS V14.00,2013-05-04 07:02:00,
2013-05-04 01:07:00,41.6,26.2,30.09,ENE,69,0.0,0.0,54,0.00,,---,0.00,VWS V14.00,2013-05-04 07:07:00,
2013-05-04 01:12:00,41.5,26.5,30.08,ENE,69,0.0,0.0,55,0.00,,---,0.00,VWS V14.00,2013-05-04 07:12:00,
2013-05-04 01:17:00,41.3,26.8,30.09,ENE,69,0.0,0.0,56,0.00,,---,0.00,VWS V14.00,2013-05-04 07:17:00,
2013-05-04 01:22:00,41.3,26.8,30.09,ENE,69,0.0,0.0,56,0.00,,---,0.00,VWS V14.00,2013-05-04 07:22:00,
2013-05-04 01:27:00,41.2,26.7,30.09,ENE,69,0.0,0.0,56,0.00,,---,0.00,VWS V14.00,2013-05-04 07:27:00,
2013-05-04 01:32:00,41.2,27.1,30.09,ENE,69,0.0,0.0,57,0.00,,---,0.00,VWS V14.00,2013-05-04 07:32:00,
2013-05-04 01:37:00,41.1,27.0,30.08,ENE,69,0.0,0.0,57,0.00,,---,0.00,VWS V14.00,2013-05-04 07:37:00,
2013-05-04 01:42:00,41.1,27.0,30.08,ENE,69,0.0,0.0,57,0.00,,---,0.00,VWS V14.00,2013-05-04 07:42:00,
2013-05-04 01:47:00,41.1,27.5,30.08,ENE,69,0.0,0.0,58,0.00,,---,0.00,VWS V14.00,2013-05-04 07:47:00,
2013-05-04 01:52:00,41.0,27.4,30.08,ENE,69,0.0,0.0,58,0.00,,---,0.00,VWS V14.00,2013-05-04 07:52:00,
2013-05-04 01:57:00,41.0,27.4,30.08,ENE,69,0.0,0.0,58,0.00,,---,0.00,VWS V14.00,2013-05-04 07:57:00,
2013-05-04 02:02:00,40.9,27.7,30.08,ENE,69,0.0,0.0,59,0.00,,---,0.00,VWS V14.00,2013-05-04 08:02:00,
2013-05-04 02:07:00,40.9,27.7,30.08,ENE,69,0.0,0.0,59,0.00,,---,0.00,VWS V14.00,2013-05-04 08:07:00,
2013-05-04 02:12:00,40.8,27.6,30.07,ENE,69,0.0,0.0,59,0.00,,---,0.00,VWS V14.00,2013-05-04 08:12:00,
2013-05-04 02:17:00,40.7,27.5,30.07,ENE,69,0.0,0.0,59,0.00,,---,0.00,VWS V14.00,2013-05-04 08:17:00,
2013-05-04 02:22:00,40.6,27.8,30.07,ENE,69,0.0,0.0,60,0.00,,---,0.00,VWS V14.00,2013-05-04 08:22:00,
2013-05-04 02:27:00,40.5,27.7,30.07,ENE,69,0.0,0.0,60,0.00,,---,0.00,VWS V14.00,2013-05-04 08:27:00,
2013-05-04 02:32:00,40.4,27.6,30.07,ENE,69,0.0,0.0,60,0.00,,---,0.00,VWS V14.00,2013-05-04 08:32:00,
2013-05-04 02:37:00,40.2,27.4,30.07,ENE,69,0.0,0.0,60,0.00,,---,0.00,VWS V14.00,2013-05-04 08:37:00,
2013-05-04 02:42:00,40.1,27.4,30.07,ENE,69,0.0,0.0,60,0.00,,---,0.00,VWS V14.00,2013-05-04 08:42:00,
2013-05-04 02:47:00,40.0,27.2,30.07,ENE,69,0.0,0.0,60,0.00,,---,0.00,VWS V14.00,2013-05-04 08:47:00,
2013-05-04 02:52:00,39.8,27.1,30.07,ENE,69,0.0,0.0,60,0.00,,---,0.00,VWS V14.00,2013-05-04 08:52:00,
2013-05-04 02:57:00,39.6,26.9,30.06,ENE,69,0.0,0.0,60,0.00,,---,0.00,VWS V14.00,2013-05-04 08:57:00,
2013-05-04 03:02:00,39.4,27.1,30.08,ENE,69,0.0,0.0,61,0.00,,---,0.00,VWS V14.00,2013-05-04 09:02:00,
2013-05-04 03:07:00,39.2,27.3,30.08,ENE,69,0.0,0.0,62,0.00,,---,0.00,VWS V14.00,2013-05-04 09:07:00,
2013-05-04 03:12:00,39.0,27.1,30.08,ENE,69,0.0,0.0,62,0.00,,---,0.00,VWS V14.00,2013-05-04 09:12:00,
2013-05-04 03:17:00,38.8,27.7,30.08,ENE,69,0.0,0.0,64,0.00,,---,0.00,VWS V14.00,2013-05-04 09:17:00,
2013-05-04 03:22:00,38.7,27.6,30.07,ENE,69,0.0,0.0,64,0.00,,---,0.00,VWS V14.00,2013-05-04 09:22:00,
2013-05-04 03:27:00,38.6,27.9,30.07,ENE,69,0.0,0.0,65,0.00,,---,0.00,VWS V14.00,2013-05-04 09:27:00,
2013-05-04 03:33:00,38.6,27.9,30.07,ENE,69,0.0,0.0,65,0.00,,---,0.00,VWS V14.00,2013-05-04 09:33:00,
2013-05-04 03:38:00,38.6,28.2,30.07,ENE,69,0.0,0.0,66,0.00,,---,0.00,VWS V14.00,2013-05-04 09:38:00,
2013-05-04 03:43:00,38.6,28.2,30.07,ENE,69,0.0,0.0,66,0.00,,---,0.00,VWS V14.00,2013-05-04 09:43:00,
2013-05-04 03:49:00,38.7,28.3,30.07,ENE,69,0.0,1.0,66,0.00,,---,0.00,VWS V14.00,2013-05-04 09:49:00,
2013-05-04 03:54:00,39.1,29.1,30.07,ENE,69,0.0,0.0,67,0.00,,---,0.00,VWS V14.00,2013-05-04 09:54:00,
2013-05-04 03:59:00,39.3,29.3,30.08,ENE,69,0.0,0.0,67,0.00,,---,0.00,VWS V14.00,2013-05-04 09:59:00,
2013-05-04 04:05:00,39.6,29.6,30.06,ENE,69,0.0,0.0,67,0.00,,---,0.00,VWS V14.00,2013-05-04 10:05:00,
2013-05-04 04:10:00,39.7,29.7,30.07,ENE,69,0.0,1.0,67,0.00,,---,0.00,VWS V14.00,2013-05-04 10:10:00,
2013-05-04 04:16:00,39.8,29.8,30.07,ENE,69,0.0,0.0,67,0.00,,---,0.00,VWS V14.00,2013-05-04 10:16:00,
2013-05-04 04:21:00,39.7,29.7,30.07,SSW,198,0.0,1.0,67,0.00,,---,0.00,VWS V14.00,2013-05-04 10:21:00,
2013-05-04 04:26:00,39.7,29.3,30.07,SSW,198,0.0,1.0,66,0.00,,---,0.00,VWS V14.00,2013-05-04 10:26:00,
2013-05-04 04:32:00,39.6,29.2,30.07,SSW,198,0.0,0.0,66,0.00,,---,0.00,VWS V14.00,2013-05-04 10:32:00,
2013-05-04 04:37:00,39.5,29.1,30.07,SSW,204,0.0,0.0,66,0.00,,---,0.00,VWS V14.00,2013-05-04 10:37:00,
2013-05-04 04:42:00,39.5,29.1,30.07,SSW,203,0.0,0.0,66,0.00,,---,0.00,VWS V14.00,2013-05-04 10:42:00,
2013-05-04 04:48:00,39.4,29.0,30.08,SSW,203,0.0,0.0,66,0.00,,---,0.00,VWS V14.00,2013-05-04 10:48:00,
2013-05-04 04:53:00,39.3,28.5,30.08,SSW,203,0.0,0.0,65,0.00,,---,0.00,VWS V14.00,2013-05-04 10:53:00,
2013-05-04 04:58:00,39.2,28.4,30.08,SSW,204,0.0,0.0,65,0.00,,---,0.00,VWS V14.00,2013-05-04 10:58:00,
2013-05-04 05:04:00,39.0,28.2,30.08,SSW,203,0.0,0.0,65,0.00,,---,0.00,VWS V14.00,2013-05-04 11:04:00,
2013-05-04 05:09:00,38.8,28.1,30.08,SSW,203,0.0,1.0,65,0.00,,---,0.00,VWS V14.00,2013-05-04 11:09:00,
2013-05-04 05:15:00,38.3,28.0,30.10,SSW,203,0.0,0.0,66,0.00,,---,0.00,VWS V14.00,2013-05-04 11:15:00,
2013-05-04 05:20:00,38.2,27.9,30.10,SSW,203,0.0,0.0,66,0.00,,---,0.00,VWS V14.00,2013-05-04 11:20:00,
2013-05-04 05:25:00,38.0,27.7,30.10,SSW,203,0.0,0.0,66,0.00,,---,0.00,VWS V14.00,2013-05-04 11:25:00,
2013-05-04 05:30:00,37.8,27.5,30.10,SSW,203,0.0,0.0,66,0.00,,---,0.00,VWS V14.00,2013-05-04 11:30:00,
2013-05-04 05:35:00,37.7,27.4,30.10,SSW,203,0.0,0.0,66,0.00,,---,0.00,VWS V14.00,2013-05-04 11:35:00,
2013-05-04 05:40:00,37.5,27.2,30.10,SSW,203,0.0,0.0,66,0.00,,---,0.00,VWS V14.00,2013-05-04 11:40:00,
2013-05-04 05:45:00,37.3,27.0,30.10,SSW,203,0.0,0.0,66,0.00,,---,0.00,VWS V14.00,2013-05-04 11:45:00,
2013-05-04 05:51:00,37.0,27.1,30.10,SSW,203,0.0,0.0,67,0.00,,---,0.00,VWS V14.00,2013-05-04 11:51:00,
2013-05-04 05:57:00,36.8,26.9,30.10,SSW,203,0.0,0.0,67,0.00,,---,0.00,VWS V14.00,2013-05-04 11:57:00,
2013-05-04 06:03:00,36.6,27.0,30.11,SSW,203,0.0,0.0,68,0.00,,---,0.00,VWS V14.00,2013-05-04 12:03:00,
2013-05-04 06:10:00,36.4,26.5,30.13,SSW,203,0.0,0.0,67,0.00,,---,0.00,VWS V14.00,2013-05-04 12:10:00,
2013-05-04 06:15:00,36.2,26.3,30.13,SSW,203,0.0,0.0,67,0.00,,---,0.00,VWS V14.00,2013-05-04 12:15:00,
2013-05-04 06:20:00,36.1,26.2,30.13,SSW,203,0.0,0.0,67,0.00,,---,0.00,VWS V14.00,2013-05-04 12:20:00,
2013-05-04 06:25:00,36.0,26.8,30.13,SSW,204,0.0,0.0,69,0.00,,---,0.00,VWS V14.00,2013-05-04 12:25:00,
2013-05-04 06:30:00,36.1,27.3,30.13,SSW,203,0.0,0.0,70,0.00,,---,0.00,VWS V14.00,2013-05-04 12:30:00,
2013-05-04 06:36:00,36.2,27.4,30.13,SSW,203,0.0,0.0,70,0.00,,---,0.00,VWS V14.00,2013-05-04 12:36:00,
2013-05-04 06:41:00,36.2,27.4,30.14,SSW,204,0.0,0.0,70,0.00,,---,0.00,VWS V14.00,2013-05-04 12:41:00,
2013-05-04 06:46:00,36.5,28.0,30.14,SSW,204,0.0,0.0,71,0.00,,---,0.00,VWS V14.00,2013-05-04 12:46:00,
2013-05-04 06:51:00,36.8,28.3,30.12,SSW,203,0.0,0.0,71,0.00,,---,0.00,VWS V14.00,2013-05-04 12:51:00,
2013-05-04 06:56:00,37.3,29.1,30.13,SSW,204,0.0,0.0,72,0.00,,---,0.00,VWS V14.00,2013-05-04 12:56:00,
2013-05-04 07:01:00,37.9,30.0,30.14,SSW,204,0.0,0.0,73,0.00,,---,0.00,VWS V14.00,2013-05-04 13:01:00,
2013-05-04 07:06:00,38.9,31.0,30.14,SSW,204,0.0,0.0,73,0.00,,---,0.00,VWS V14.00,2013-05-04 13:06:00,
2013-05-04 07:11:00,39.7,31.4,30.13,SSW,203,0.0,0.0,72,0.00,,---,0.00,VWS V14.00,2013-05-04 13:11:00,
2013-05-04 07:16:00,41.5,32.1,30.13,SSW,204,0.0,1.0,69,0.00,,---,0.00,VWS V14.00,2013-05-04 13:16:00,
2013-05-04 07:21:00,43.2,31.9,30.12,NE,38,2.0,2.0,64,0.00,,---,0.00,VWS V14.00,2013-05-04 13:21:00,
2013-05-04 07:26:00,44.3,31.7,30.11,NNE,19,0.0,2.0,61,0.00,,---,0.00,VWS V14.00,2013-05-04 13:26:00,
2013-05-04 07:31:00,45.0,31.5,30.11,NNE,19,0.0,0.0,59,0.00,,---,0.00,VWS V14.00,2013-05-04 13:31:00,
2013-05-04 07:36:00,45.2,30.9,30.11,North,9,0.0,3.0,57,0.00,,---,0.00,VWS V14.00,2013-05-04 13:36:00,
2013-05-04 07:41:00,45.4,31.1,30.11,SW,214,0.0,0.0,57,0.00,,---,0.00,VWS V14.00,2013-05-04 13:41:00,
2013-05-04 07:46:00,45.7,31.4,30.10,SSW,213,0.0,3.0,57,0.00,,---,0.00,VWS V14.00,2013-05-04 13:46:00,
2013-05-04 07:51:00,46.3,31.5,30.10,NNW,327,0.0,1.0,56,0.00,,---,0.00,VWS V14.00,2013-05-04 13:51:00,
2013-05-04 07:56:00,46.4,30.7,30.10,SSW,195,0.0,0.0,54,0.00,,---,0.00,VWS V14.00,2013-05-04 13:56:00,
2013-05-04 08:01:00,47.2,31.9,30.12,NNW,336,0.0,0.0,55,0.00,,---,0.00,VWS V14.00,2013-05-04 14:01:00,
2013-05-04 08:06:00,47.3,31.5,30.12,SSE,149,0.0,0.0,54,0.00,,---,0.00,VWS V14.00,2013-05-04 14:06:00,
2013-05-04 08:11:00,47.8,31.5,30.10,NNE,17,0.0,2.0,53,0.00,,---,0.00,VWS V14.00,2013-05-04 14:11:00,
2013-05-04 08:17:00,48.7,32.3,30.10,NNE,17,2.0,3.0,53,0.00,,---,0.00,VWS V14.00,2013-05-04 14:17:00,
2013-05-04 08:22:00,48.4,31.6,30.10,NNE,25,1.0,2.0,52,0.00,,---,0.00,VWS V14.00,2013-05-04 14:22:00,
2013-05-04 08:27:00,47.4,31.1,30.11,NNE,30,1.0,4.0,53,0.00,,---,0.00,VWS V14.00,2013-05-04 14:27:00,
2013-05-04 08:32:00,47.5,31.7,30.12,NNE,27,0.0,4.0,54,0.00,,---,0.00,VWS V14.00,2013-05-04 14:32:00,
2013-05-04 08:37:00,47.9,31.6,30.11,NNW,346,1.0,5.0,53,0.00,,---,0.00,VWS V14.00,2013-05-04 14:37:00,
2013-05-04 08:42:00,47.5,31.7,30.12,NNE,24,0.0,2.0,54,0.00,,---,0.00,VWS V14.00,2013-05-04 14:42:00,
2013-05-04 08:47:00,47.5,31.2,30.11,North,360,2.0,5.0,53,0.00,,---,0.00,VWS V14.00,2013-05-04 14:47:00,
2013-05-04 08:52:00,48.3,32.4,30.11,North,355,0.0,1.0,54,0.00,,---,0.00,VWS V14.00,2013-05-04 14:52:00,
2013-05-04 08:57:00,48.6,31.8,30.11,NNW,343,3.0,3.0,52,0.00,,---,0.00,VWS V14.00,2013-05-04 14:57:00,
2013-05-04 09:02:00,49.6,32.7,30.12,NNW,342,0.0,1.0,52,0.00,,---,0.00,VWS V14.00,2013-05-04 15:02:00,
2013-05-04 09:07:00,49.2,32.8,30.12,NNE,28,0.0,2.0,53,0.00,,---,0.00,VWS V14.00,2013-05-04 15:07:00,
2013-05-04 09:12:00,48.8,32.0,30.12,NE,42,0.0,4.0,52,0.00,,---,0.00,VWS V14.00,2013-05-04 15:12:00,
2013-05-04 09:17:00,49.0,32.6,30.12,North,5,2.0,4.0,53,0.00,,---,0.00,VWS V14.00,2013-05-04 15:17:00,
2013-05-04 09:22:00,49.6,32.2,30.12,NE,44,4.0,6.0,51,0.00,,---,0.00,VWS V14.00,2013-05-04 15:22:00,
2013-05-04 09:27:00,48.8,31.5,30.12,NNE,26,2.0,5.0,51,0.00,,---,0.00,VWS V14.00,2013-05-04 15:27:00,
2013-05-04 09:32:00,49.0,32.2,30.12,NNE,13,1.0,6.0,52,0.00,,---,0.00,VWS V14.00,2013-05-04 15:32:00,
2013-05-04 09:37:00,49.8,31.9,30.12,North,355,2.0,5.0,50,0.00,,---,0.00,VWS V14.00,2013-05-04 15:37:00,
2013-05-04 09:42:00,49.7,32.3,30.12,North,360,0.0,6.0,51,0.00,,---,0.00,VWS V14.00,2013-05-04 15:42:00,
2013-05-04 09:47:00,49.4,31.6,30.13,NE,49,0.0,6.0,50,0.00,,---,0.00,VWS V14.00,2013-05-04 15:47:00,
2013-05-04 09:52:00,50.4,33.9,30.12,NNW,343,0.0,4.0,53,0.00,,---,0.00,VWS V14.00,2013-05-04 15:52:00,
2013-05-04 09:57:00,50.8,33.3,30.11,NE,43,0.0,4.0,51,0.00,,---,0.00,VWS V14.00,2013-05-04 15:57:00,
2013-05-04 10:02:00,50.5,32.6,30.14,NE,44,4.0,5.0,50,0.00,,---,0.00,VWS V14.00,2013-05-04 16:02:00,
2013-05-04 10:07:00,51.1,33.1,30.14,NE,37,0.0,4.0,50,0.00,,---,0.00,VWS V14.00,2013-05-04 16:07:00,
2013-05-04 10:12:00,51.3,32.8,30.14,NNW,346,3.0,3.0,49,0.00,,---,0.00,VWS V14.00,2013-05-04 16:12:00,
2013-05-04 10:17:00,51.4,33.9,30.12,NNE,32,4.0,6.0,51,0.00,,---,0.00,VWS V14.00,2013-05-04 16:17:00,
2013-05-04 10:22:00,52.4,34.8,30.12,NE,46,5.0,7.0,51,0.00,,---,0.00,VWS V14.00,2013-05-04 16:22:00,
2013-05-04 10:27:00,52.3,34.2,30.12,NNE,30,7.0,7.0,50,0.00,,---,0.00,VWS V14.00,2013-05-04 16:27:00,
2013-05-04 10:32:00,52.1,34.0,30.12,NNE,12,5.0,5.0,50,0.00,,---,0.00,VWS V14.00,2013-05-04 16:32:00,
2013-05-04 10:37:00,52.5,34.4,30.12,North,355,1.0,6.0,50,0.00,,---,0.00,VWS V14.00,2013-05-04 16:37:00,
2013-05-04 10:42:00,52.8,34.2,30.12,East,81,1.0,5.0,49,0.00,,---,0.00,VWS V14.00,2013-05-04 16:42:00,
2013-05-04 10:47:00,52.8,33.7,30.12,North,5,4.0,6.0,48,0.00,,---,0.00,VWS V14.00,2013-05-04 16:47:00,
2013-05-04 10:52:00,53.1,34.0,30.12,NNE,15,2.0,6.0,48,0.00,,---,0.00,VWS V14.00,2013-05-04 16:52:00,
2013-05-04 10:57:00,54.0,35.3,30.11,NNE,33,0.0,3.0,49,0.00,,---,0.00,VWS V14.00,2013-05-04 16:57:00,
2013-05-04 11:02:00,54.2,35.0,30.12,East,88,0.0,2.0,48,0.00,,---,0.00,VWS V14.00,2013-05-04 17:02:00,
2013-05-04 11:07:00,54.6,34.8,30.12,North,360,2.0,7.0,47,0.00,,---,0.00,VWS V14.00,2013-05-04 17:07:00,
2013-05-04 11:12:00,54.7,35.4,30.12,NNE,17,7.0,7.0,48,0.00,,---,0.00,VWS V14.00,2013-05-04 17:12:00,
2013-05-04 11:17:00,54.8,35.5,30.12,NE,43,3.0,4.0,48,0.00,,---,0.00,VWS V14.00,2013-05-04 17:17:00,
2013-05-04 11:22:00,55.4,35.0,30.12,NW,313,1.0,2.0,46,0.00,,---,0.00,VWS V14.00,2013-05-04 17:22:00,
2013-05-04 11:27:00,56.0,37.1,30.11,NE,37,0.0,4.0,49,0.00,,---,0.00,VWS V14.00,2013-05-04 17:27:00,
2013-05-04 11:32:00,55.9,37.0,30.11,ESE,117,1.0,3.0,49,0.00,,---,0.00,VWS V14.00,2013-05-04 17:32:00,
2013-05-04 11:37:00,56.1,36.2,30.11,NNE,26,1.0,1.0,47,0.00,,---,0.00,VWS V14.00,2013-05-04 17:37:00,
2013-05-04 11:42:00,56.4,33.6,30.11,NNE,20,1.0,2.0,42,0.00,,---,0.00,VWS V14.00,2013-05-04 17:42:00,
2013-05-04 11:47:00,56.8,34.6,30.11,ENE,69,0.0,2.0,43,0.00,,---,0.00,VWS V14.00,2013-05-04 17:47:00,
2013-05-04 11:52:00,56.6,33.8,30.10,NNW,337,0.0,6.0,42,0.00,,---,0.00,VWS V14.00,2013-05-04 17:52:00,
2013-05-04 11:57:00,57.3,33.2,30.10,NNW,336,1.0,3.0,40,0.00,,---,0.00,VWS V14.00,2013-05-04 17:57:00,
2013-05-04 12:02:00,55.9,32.0,30.12,NNE,22,2.0,6.0,40,0.00,,---,0.00,VWS V14.00,2013-05-04 18:02:00,
2013-05-04 12:07:00,55.3,31.4,30.13,North,5,0.0,5.0,40,0.00,,---,0.00,VWS V14.00,2013-05-04 18:07:00,
2013-05-04 12:12:00,54.4,30.6,30.13,NNE,19,0.0,5.0,40,0.00,,---,0.00,VWS V14.00,2013-05-04 18:12:00,
2013-05-04 12:17:00,54.8,32.2,30.12,NNE,24,0.0,1.0,42,0.00,,---,0.00,VWS V14.00,2013-05-04 18:17:00,
2013-05-04 12:22:00,56.6,36.1,30.11,ESE,114,1.0,4.0,46,0.00,,---,0.00,VWS V14.00,2013-05-04 18:22:00,
2013-05-04 12:27:00,57.7,35.4,30.11,ESE,121,1.0,3.0,43,0.00,,---,0.00,VWS V14.00,2013-05-04 18:27:00,
2013-05-04 12:32:00,57.5,34.0,30.11,ESE,123,0.0,0.0,41,0.00,,---,0.00,VWS V14.00,2013-05-04 18:32:00,
2013-05-04 12:37:00,58.7,33.8,30.10,NE,52,5.0,6.0,39,0.00,,---,0.00,VWS V14.00,2013-05-04 18:37:00,
2013-05-04 12:42:00,58.0,31.2,30.10,ENE,74,2.0,4.0,36,0.00,,---,0.00,VWS V14.00,2013-05-04 18:42:00,
2013-05-04 12:47:00,59.6,35.3,30.09,SE,133,0.0,3.0,40,0.00,,---,0.00,VWS V14.00,2013-05-04 18:47:00,
2013-05-04 12:52:00,60.2,31.8,30.08,SE,134,0.0,3.0,34,0.00,,---,0.00,VWS V14.00,2013-05-04 18:52:00,
2013-05-04 12:57:00,60.0,33.0,30.08,NE,37,0.0,3.0,36,0.00,,---,0.00,VWS V14.00,2013-05-04 18:57:00,
2013-05-04 13:02:00,59.5,31.1,30.09,ENE,69,0.0,4.0,34,0.00,,---,0.00,VWS V14.00,2013-05-04 19:02:00,
2013-05-04 13:07:00,60.3,35.3,30.09,ESE,118,1.0,2.0,39,0.00,,---,0.00,VWS V14.00,2013-05-04 19:07:00,
2013-05-04 13:12:00,61.0,34.6,30.07,ESE,113,1.0,1.0,37,0.00,,---,0.00,VWS V14.00,2013-05-04 19:12:00,
2013-05-04 13:17:00,60.2,31.0,30.09,East,100,0.0,7.0,33,0.00,,---,0.00,VWS V14.00,2013-05-04 19:17:00,
2013-05-04 13:22:00,60.2,31.8,30.09,ENE,69,4.0,4.0,34,0.00,,---,0.00,VWS V14.00,2013-05-04 19:22:00,
2013-05-04 13:27:00,59.6,31.2,30.09,NE,48,3.0,6.0,34,0.00,,---,0.00,VWS V14.00,2013-05-04 19:27:00,
2013-05-04 13:32:00,59.0,32.8,30.08,ESE,107,4.0,4.0,37,0.00,,---,0.00,VWS V14.00,2013-05-04 19:32:00,
2013-05-04 13:37:00,60.0,32.3,30.08,NNE,17,1.0,4.0,35,0.00,,---,0.00,VWS V14.00,2013-05-04 19:37:00,
2013-05-04 13:42:00,59.9,31.5,30.08,SE,138,0.0,5.0,34,0.00,,---,0.00,VWS V14.00,2013-05-04 19:42:00,
2013-05-04 13:47:00,60.7,32.9,30.07,ENE,77,1.0,4.0,35,0.00,,---,0.00,VWS V14.00,2013-05-04 19:47:00,
2013-05-04 13:52:00,59.4,31.8,30.08,ESE,102,3.0,7.0,35,0.00,,---,0.00,VWS V14.00,2013-05-04 19:52:00,
2013-05-04 13:57:00,59.4,34.5,30.08,East,95,0.0,0.0,39,0.00,,---,0.00,VWS V14.00,2013-05-04 19:57:00,
2013-05-04 14:03:00,61.1,34.7,30.08,ESE,115,0.0,2.0,37,0.00,,---,0.00,VWS V14.00,2013-05-04 20:03:00,
2013-05-04 14:08:00,61.2,31.9,30.08,ESE,114,1.0,7.0,33,0.00,,---,0.00,VWS V14.00,2013-05-04 20:08:00,
2013-05-04 14:13:00,61.6,37.1,30.07,ENE,65,1.0,2.0,40,0.00,,---,0.00,VWS V14.00,2013-05-04 20:13:00,
2013-05-04 14:18:00,60.3,30.3,30.08,ENE,63,0.0,1.0,32,0.00,,---,0.00,VWS V14.00,2013-05-04 20:18:00,
2013-05-04 14:23:00,58.4,30.2,30.09,ENE,76,0.0,0.0,34,0.00,,---,0.00,VWS V14.00,2013-05-04 20:23:00,
2013-05-04 14:28:00,58.9,32.7,30.09,ESE,102,0.0,4.0,37,0.00,,---,0.00,VWS V14.00,2013-05-04 20:28:00,
2013-05-04 14:33:00,62.0,36.8,30.07,ESE,110,1.0,4.0,39,0.00,,---,0.00,VWS V14.00,2013-05-04 20:33:00,
2013-05-04 14:38:00,61.9,32.5,30.07,East,90,4.0,6.0,33,0.00,,---,0.00,VWS V14.00,2013-05-04 20:38:00,
2013-05-04 14:43:00,59.7,30.6,30.08,East,84,3.0,4.0,33,0.00,,---,0.00,VWS V14.00,2013-05-04 20:43:00,
2013-05-04 14:48:00,58.7,29.7,30.09,ENE,64,0.0,3.0,33,0.00,,---,0.00,VWS V14.00,2013-05-04 20:48:00,
2013-05-04 14:54:00,59.6,31.9,30.09,ENE,68,2.0,5.0,35,0.00,,---,0.00,VWS V14.00,2013-05-04 20:54:00,
2013-05-04 14:59:00,60.8,32.3,30.08,North,349,0.0,2.0,34,0.00,,---,0.00,VWS V14.00,2013-05-04 20:59:00,
2013-05-04 15:04:00,62.2,33.5,30.07,NNE,33,0.0,1.0,34,0.00,,---,0.00,VWS V14.00,2013-05-04 21:04:00,
2013-05-04 15:09:00,60.1,31.7,30.09,ESE,121,1.0,3.0,34,0.00,,---,0.00,VWS V14.00,2013-05-04 21:09:00,
2013-05-04 15:15:00,59.0,31.4,30.09,ESE,104,0.0,5.0,35,0.00,,---,0.00,VWS V14.00,2013-05-04 21:15:00,
2013-05-04 15:20:00,60.4,31.9,30.09,NE,34,0.0,5.0,34,0.00,,---,0.00,VWS V14.00,2013-05-04 21:20:00,
2013-05-04 15:26:00,61.8,35.3,30.07,East,84,0.0,2.0,37,0.00,,---,0.00,VWS V14.00,2013-05-04 21:26:00,
2013-05-04 15:31:00,61.1,31.0,30.07,NNE,33,2.0,4.0,32,0.00,,---,0.00,VWS V14.00,2013-05-04 21:31:00,
2013-05-04 15:36:00,60.1,33.1,30.08,SE,128,3.0,5.0,36,0.00,,---,0.00,VWS V14.00,2013-05-04 21:36:00,
2013-05-04 15:41:00,59.0,30.7,30.08,ENE,73,1.0,3.0,34,0.00,,---,0.00,VWS V14.00,2013-05-04 21:41:00,
2013-05-04 15:47:00,58.0,30.5,30.10,ENE,74,1.0,1.0,35,0.00,,---,0.00,VWS V14.00,2013-05-04 21:47:00,
2013-05-04 15:52:00,57.7,31.6,30.10,NNE,15,4.0,6.0,37,0.00,,---,0.00,VWS V14.00,2013-05-04 21:52:00,
2013-05-04 15:58:00,59.3,30.2,30.09,NNE,19,0.0,1.0,33,0.00,,---,0.00,VWS V14.00,2013-05-04 21:58:00,
2013-05-04 16:03:00,59.8,30.7,30.09,East,86,1.0,2.0,33,0.00,,---,0.00,VWS V14.00,2013-05-04 22:03:00,
2013-05-04 16:08:00,59.0,30.7,30.09,ENE,75,0.0,1.0,34,0.00,,---,0.00,VWS V14.00,2013-05-04 22:08:00,
2013-05-04 16:13:00,58.3,32.2,30.10,SE,130,1.0,1.0,37,0.00,,---,0.00,VWS V14.00,2013-05-04 22:13:00,
2013-05-04 16:18:00,58.2,31.4,30.10,ESE,123,0.0,1.0,36,0.00,,---,0.00,VWS V14.00,2013-05-04 22:18:00,
2013-05-04 16:23:00,58.6,31.0,30.09,ESE,121,0.0,2.0,35,0.00,,---,0.00,VWS V14.00,2013-05-04 22:23:00,
2013-05-04 16:28:00,60.3,32.6,30.09,ENE,73,5.0,8.0,35,0.00,,---,0.00,VWS V14.00,2013-05-04 22:28:00,
2013-05-04 16:34:00,59.0,31.4,30.09,ESE,109,0.0,3.0,35,0.00,,---,0.00,VWS V14.00,2013-05-04 22:34:00,
2013-05-04 16:39:00,58.1,30.6,30.10,North,5,4.0,5.0,35,0.00,,---,0.00,VWS V14.00,2013-05-04 22:39:00,
2013-05-04 16:45:00,57.7,30.3,30.10,ENE,78,1.0,2.0,35,0.00,,---,0.00,VWS V14.00,2013-05-04 22:45:00,
2013-05-04 16:50:00,57.6,31.5,30.10,SE,146,2.0,2.0,37,0.00,,---,0.00,VWS V14.00,2013-05-04 22:50:00,
2013-05-04 16:55:00,58.2,31.4,30.10,ENE,65,3.0,3.0,36,0.00,,---,0.00,VWS V14.00,2013-05-04 22:55:00,
2013-05-04 17:00:00,58.1,30.6,30.12,East,80,0.0,4.0,35,0.00,,---,0.00,VWS V14.00,2013-05-04 23:00:00,
2013-05-04 17:06:00,57.5,30.1,30.12,ENE,78,0.0,3.0,35,0.00,,---,0.00,VWS V14.00,2013-05-04 23:06:00,
2013-05-04 17:11:00,57.5,31.5,30.12,ESE,119,0.0,3.0,37,0.00,,---,0.00,VWS V14.00,2013-05-04 23:11:00,
2013-05-04 17:16:00,57.8,30.4,30.12,East,88,3.0,7.0,35,0.00,,---,0.00,VWS V14.00,2013-05-04 23:16:00,
2013-05-04 17:21:00,57.8,31.7,30.12,East,89,0.0,3.0,37,0.00,,---,0.00,VWS V14.00,2013-05-04 23:21:00,
2013-05-04 17:26:00,58.0,32.6,30.13,NNE,26,0.0,0.0,38,0.00,,---,0.00,VWS V14.00,2013-05-04 23:26:00,
2013-05-04 17:31:00,58.1,31.3,30.13,East,90,0.0,1.0,36,0.00,,---,0.00,VWS V14.00,2013-05-04 23:31:00,
2013-05-04 17:36:00,58.3,30.8,30.13,ESE,107,1.0,6.0,35,0.00,,---,0.00,VWS V14.00,2013-05-04 23:36:00,
2013-05-04 17:41:00,58.3,31.5,30.13,ENE,71,0.0,3.0,36,0.00,,---,0.00,VWS V14.00,2013-05-04 23:41:00,
2013-05-04 17:47:00,57.2,29.1,30.13,ENE,74,1.0,4.0,34,0.00,,---,0.00,VWS V14.00,2013-05-04 23:47:00,
2013-05-04 17:52:00,56.8,30.8,30.13,East,90,1.0,2.0,37,0.00,,---,0.00,VWS V14.00,2013-05-04 23:52:00,
2013-05-04 17:57:00,56.6,30.0,30.13,East,94,0.0,1.0,36,0.00,,---,0.00,VWS V14.00,2013-05-04 23:57:00,
2013-05-04 18:02:00,56.7,30.1,30.13,East,86,0.0,3.0,36,0.00,,---,0.00,VWS V14.00,2013-05-05 00:02:00,
2013-05-04 18:07:00,56.6,30.0,30.14,ENE,69,5.0,5.0,36,0.00,,---,0.00,VWS V14.00,2013-05-05 00:07:00,
2013-05-04 18:12:00,56.2,30.3,30.14,East,88,0.0,1.0,37,0.00,,---,0.00,VWS V14.00,2013-05-05 00:12:00,
2013-05-04 18:17:00,56.2,29.6,30.14,ESE,102,0.0,0.0,36,0.00,,---,0.00,VWS V14.00,2013-05-05 00:17:00,
2013-05-04 18:22:00,56.1,30.2,30.14,East,80,0.0,0.0,37,0.00,,---,0.00,VWS V14.00,2013-05-05 00:22:00,
2013-05-04 18:27:00,56.0,28.8,30.14,ESE,115,3.0,3.0,35,0.00,,---,0.00,VWS V14.00,2013-05-05 00:27:00,
2013-05-04 18:32:00,55.8,29.3,30.14,ESE,117,0.0,0.0,36,0.00,,---,0.00,VWS V14.00,2013-05-05 00:32:00,
2013-05-04 18:37:00,55.6,28.4,30.14,ESE,109,0.0,2.0,35,0.00,,---,0.00,VWS V14.00,2013-05-05 00:37:00,
2013-05-04 18:42:00,55.3,28.1,30.15,ENE,72,1.0,1.0,35,0.00,,---,0.00,VWS V14.00,2013-05-05 00:42:00,
2013-05-04 18:47:00,54.9,28.5,30.15,ESE,102,0.0,0.0,36,0.00,,---,0.00,VWS V14.00,2013-05-05 00:47:00,
2013-05-04 18:52:00,54.6,28.2,30.16,ESE,102,0.0,1.0,36,0.00,,---,0.00,VWS V14.00,2013-05-05 00:52:00,
2013-05-04 18:57:00,54.2,27.9,30.16,ESE,114,0.0,3.0,36,0.00,,---,0.00,VWS V14.00,2013-05-05 00:57:00,
2013-05-04 19:02:00,53.9,28.2,30.11,ESE,103,1.0,1.0,37,0.00,,---,0.00,VWS V14.00,2013-05-05 01:02:00,
2013-05-04 19:07:00,53.9,28.2,30.11,ENE,67,0.0,1.0,37,0.00,,---,0.00,VWS V14.00,2013-05-05 01:07:00,
2013-05-04 19:12:00,53.7,28.7,30.11,SE,132,0.0,4.0,38,0.00,,---,0.00,VWS V14.00,2013-05-05 01:12:00,
2013-05-04 19:17:00,53.5,28.5,30.11,SE,132,0.0,2.0,38,0.00,,---,0.00,VWS V14.00,2013-05-05 01:17:00,
2013-05-04 19:22:00,53.6,27.3,30.12,SE,127,0.0,2.0,36,0.00,,---,0.00,VWS V14.00,2013-05-05 01:22:00,
2013-05-04 19:27:00,53.6,27.3,30.12,East,82,0.0,1.0,36,0.00,,---,0.00,VWS V14.00,2013-05-05 01:27:00,
2013-05-04 19:32:00,53.5,27.9,30.12,ENE,72,0.0,4.0,37,0.00,,---,0.00,VWS V14.00,2013-05-05 01:32:00,
2013-05-04 19:37:00,53.1,27.5,30.13,NE,50,1.0,4.0,37,0.00,,---,0.00,VWS V14.00,2013-05-05 01:37:00,
2013-05-04 19:42:00,52.8,27.3,30.13,ENE,75,1.0,3.0,37,0.00,,---,0.00,VWS V14.00,2013-05-05 01:42:00,
2013-05-04 19:47:00,52.5,27.0,30.13,ENE,69,0.0,4.0,37,0.00,,---,0.00,VWS V14.00,2013-05-05 01:47:00,
2013-05-04 19:52:00,52.1,28.5,30.14,ENE,69,1.0,1.0,40,0.00,,---,0.00,VWS V14.00,2013-05-05 01:52:00,
2013-05-04 19:57:00,51.8,27.6,30.15,ENE,69,0.0,2.0,39,0.00,,---,0.00,VWS V14.00,2013-05-05 01:57:00,
2013-05-04 20:02:00,51.5,27.4,30.13,East,93,0.0,3.0,39,0.00,,---,0.00,VWS V14.00,2013-05-05 02:02:00,
2013-05-04 20:07:00,51.1,27.6,30.14,SE,127,1.0,4.0,40,0.00,,---,0.00,VWS V14.00,2013-05-05 02:07:00,
2013-05-04 20:12:00,50.9,26.8,30.14,ESE,111,0.0,0.0,39,0.00,,---,0.00,VWS V14.00,2013-05-05 02:12:00,
2013-05-04 20:17:00,50.6,27.8,30.14,ESE,103,0.0,2.0,41,0.00,,---,0.00,VWS V14.00,2013-05-05 02:17:00,
2013-05-04 20:22:00,50.4,27.6,30.15,ESE,115,0.0,1.0,41,0.00,,---,0.00,VWS V14.00,2013-05-05 02:22:00,
2013-05-04 20:27:00,50.3,28.1,30.15,ESE,117,0.0,1.0,42,0.00,,---,0.00,VWS V14.00,2013-05-05 02:27:00,
2013-05-04 20:32:00,50.1,26.7,30.15,ESE,117,0.0,0.0,40,0.00,,---,0.00,VWS V14.00,2013-05-05 02:32:00,
2013-05-04 20:37:00,50.1,27.3,30.16,ESE,117,0.0,0.0,41,0.00,,---,0.00,VWS V14.00,2013-05-05 02:37:00,
2013-05-04 20:42:00,50.0,26.6,30.16,SE,129,0.0,0.0,40,0.00,,---,0.00,VWS V14.00,2013-05-05 02:42:00,
2013-05-04 20:47:00,49.9,27.1,30.16,SE,129,0.0,1.0,41,0.00,,---,0.00,VWS V14.00,2013-05-05 02:47:00,
2013-05-04 20:52:00,49.7,27.6,30.16,SE,129,2.0,4.0,42,0.00,,---,0.00,VWS V14.00,2013-05-05 02:52:00,
2013-05-04 20:57:00,49.5,26.8,30.16,SE,128,0.0,1.0,41,0.00,,---,0.00,VWS V14.00,2013-05-05 02:57:00,
2013-05-04 21:02:00,49.3,27.2,30.16,SE,128,0.0,1.0,42,0.00,,---,0.00,VWS V14.00,2013-05-05 03:02:00,
2013-05-04 21:07:00,49.1,27.0,30.16,SE,128,0.0,1.0,42,0.00,,---,0.00,VWS V14.00,2013-05-05 03:07:00,
2013-05-04 21:12:00,48.8,27.3,30.16,SE,128,0.0,2.0,43,0.00,,---,0.00,VWS V14.00,2013-05-05 03:12:00,
2013-05-04 21:17:00,48.5,27.0,30.16,SE,130,0.0,2.0,43,0.00,,---,0.00,VWS V14.00,2013-05-05 03:17:00,
2013-05-04 21:22:00,48.3,26.9,30.18,SE,130,0.0,3.0,43,0.00,,---,0.00,VWS V14.00,2013-05-05 03:22:00,
2013-05-04 21:27:00,48.1,27.2,30.18,SE,133,0.0,1.0,44,0.00,,---,0.00,VWS V14.00,2013-05-05 03:27:00,
2013-05-04 21:32:00,47.9,26.5,30.18,SE,132,0.0,0.0,43,0.00,,---,0.00,VWS V14.00,2013-05-05 03:32:00,
2013-05-04 21:37:00,47.8,26.4,30.18,SE,132,1.0,2.0,43,0.00,,---,0.00,VWS V14.00,2013-05-05 03:37:00,
2013-05-04 21:42:00,47.6,26.2,30.19,SE,132,0.0,2.0,43,0.00,,---,0.00,VWS V14.00,2013-05-05 03:42:00,
2013-05-04 21:47:00,47.4,26.0,30.18,SE,132,0.0,1.0,43,0.00,,---,0.00,VWS V14.00,2013-05-05 03:47:00,
2013-05-04 21:52:00,47.2,25.9,30.19,SE,132,0.0,2.0,43,0.00,,---,0.00,VWS V14.00,2013-05-05 03:52:00,
2013-05-04 21:57:00,47.1,25.8,30.19,SE,128,1.0,2.0,43,0.00,,---,0.00,VWS V14.00,2013-05-05 03:57:00,
2013-05-04 22:01:00,46.9,26.1,30.18,SE,128,1.0,1.0,44,0.00,,---,0.00,VWS V14.00,2013-05-05 04:01:00,
2013-05-04 22:02:00,46.9,25.6,30.18,SE,128,2.0,3.0,43,0.00,,---,0.00,VWS V14.00,2013-05-05 04:02:00,
2013-05-04 22:03:00,46.9,25.6,30.18,SE,128,0.0,2.0,43,0.00,,---,0.00,VWS V14.00,2013-05-05 04:03:00,
2013-05-04 22:06:00,46.8,26.0,30.18,SE,128,0.0,1.0,44,0.00,,---,0.00,VWS V14.00,2013-05-05 04:06:00,
2013-05-04 22:11:00,46.8,26.0,30.18,SE,128,0.0,1.0,44,0.00,,---,0.00,VWS V14.00,2013-05-05 04:11:00,
2013-05-04 22:16:00,46.7,26.0,30.18,SE,128,0.0,1.0,44,0.00,,---,0.00,VWS V14.00,2013-05-05 04:16:00,
2013-05-04 22:21:00,46.7,26.0,30.18,SE,128,0.0,2.0,44,0.00,,---,0.00,VWS V14.00,2013-05-05 04:21:00,
2013-05-04 22:26:00,46.6,25.9,30.18,SE,126,2.0,3.0,44,0.00,,---,0.00,VWS V14.00,2013-05-05 04:26:00,
2013-05-04 22:31:00,46.5,25.8,30.18,SE,126,0.0,0.0,44,0.00,,---,0.00,VWS V14.00,2013-05-05 04:31:00,
2013-05-04 22:36:00,46.4,25.7,30.18,ESE,119,0.0,1.0,44,0.00,,---,0.00,VWS V14.00,2013-05-05 04:36:00,
2013-05-04 22:41:00,46.3,25.6,30.18,ESE,119,0.0,1.0,44,0.00,,---,0.00,VWS V14.00,2013-05-05 04:41:00,
2013-05-04 22:46:00,46.2,25.0,30.18,ESE,119,1.0,2.0,43,0.00,,---,0.00,VWS V14.00,2013-05-05 04:46:00,
2013-05-04 22:51:00,46.0,24.8,30.19,ESE,119,0.0,0.0,43,0.00,,---,0.00,VWS V14.00,2013-05-05 04:51:00,
2013-05-04 22:56:00,45.9,25.2,30.19,ESE,119,0.0,0.0,44,0.00,,---,0.00,VWS V14.00,2013-05-05 04:56:00,
2013-05-04 23:01:00,45.8,24.6,30.18,ESE,119,0.0,0.0,43,0.00,,---,0.00,VWS V14.00,2013-05-05 05:01:00,
2013-05-04 23:06:00,45.8,24.6,30.18,ESE,119,0.0,0.0,43,0.00,,---,0.00,VWS V14.00,2013-05-05 05:06:00,
2013-05-04 23:11:00,45.6,25.0,30.18,ESE,119,2.0,2.0,44,0.00,,---,0.00,VWS V14.00,2013-05-05 05:11:00,
2013-05-04 23:16:00,45.5,24.3,30.18,ESE,119,0.0,1.0,43,0.00,,---,0.00,VWS V14.00,2013-05-05 05:16:00,
2013-05-04 23:21:00,45.4,24.8,30.19,ESE,119,0.0,0.0,44,0.00,,---,0.00,VWS V14.00,2013-05-05 05:21:00,
2013-05-04 23:26:00,45.3,24.7,30.19,ESE,119,0.0,0.0,44,0.00,,---,0.00,VWS V14.00,2013-05-05 05:26:00,
2013-05-04 23:31:00,45.2,24.6,30.19,ESE,119,0.0,0.0,44,0.00,,---,0.00,VWS V14.00,2013-05-05 05:31:00,
2013-05-04 23:36:00,45.1,24.5,30.19,ESE,119,0.0,0.0,44,0.00,,---,0.00,VWS V14.00,2013-05-05 05:36:00,
2013-05-04 23:41:00,45.0,24.4,30.19,ESE,119,0.0,0.0,44,0.00,,---,0.00,VWS V14.00,2013-05-05 05:41:00,
2013-05-04 23:46:00,45.0,24.4,30.19,ESE,119,0.0,0.0,44,0.00,,---,0.00,VWS V14.00,2013-05-05 05:46:00,
2013-05-04 23:51:00,44.8,24.8,30.19,ESE,119,0.0,0.0,45,0.00,,---,0.00,VWS V14.00,2013-05-05 05:51:00,
2013-05-04 23:56:00,44.7,24.7,30.20,ESE,119,0.0,0.0,45,0.00,,---,0.00,VWS V14.00,2013-05-05 05:56:00,